Miscellaneous Local Product
Issued by NWS Hastings, NE

Home | Current Version | Previous Version | Graphics & Text | Print | Product List | Glossary On
Versions: 1 2 3 4 5 6 7 8 9 10 11 12 13 14 15 16 17 18 19 20 21 22 23 24 25 26 27 28 29 30 31 32 33 34 35 36 37 38 39 40 41 42 43 44 45 46 47 48 49 50
407
AXUS43 KGID 231802
MISGRI

GID CWA HOURLY WEATHER ROUNDUP
NATIONAL WEATHER SERVICE HASTINGS NE
100 PM CDT THU MAR 23 2017

NOTE: "FAIR" INDICATES FEW OR NO CLOUDS BELOW 12,000 FEET WITH NO
SIGNIFICANT WEATHER AND/OR OBSTRUCTIONS TO VISIBILITY.

...SOUTH CENTRAL NEBRASKA...

CITY           SKY/WX    TMP DP  RH WIND       PRES   REMARKS
GRAND ISLAND   CLOUDY    55  51  86 S16G23    29.75F
HASTINGS       CLOUDY    56  52  86 S18G26    29.74F
KEARNEY        CLOUDY    54  52  94 S14G20    29.72F
ORD            CLOUDY    50  48  93 S13       29.70F FOG
YORK           PTSUNNY   57  50  77 S18G28    29.77F
AURORA         CLOUDY    56  50  82 S16G29    29.76F
LEXINGTON      FOG       54  53  96 S10       29.70F VSB 3/4
HOLDREGE       CLOUDY    56  54  95 S16G22    29.69F FOG
HEBRON         CLOUDY    61  52  72 S18G26    29.78F

...NEBRASKA PANHANDLE...

CITY           SKY/WX    TMP DP  RH WIND       PRES   REMARKS
CHADRON        SUNNY     62  41  46 NE8       29.60F
ALLIANCE       CLOUDY    56  39  53 CALM      29.63F
SCOTTSBLUFF    SUNNY     58  39  49 SE12      29.64F
SIDNEY         CLOUDY    59  40  49 CALM      29.64F

...WESTERN AND NORTH CENTRAL NEBRASKA...

CITY           SKY/WX    TMP DP  RH WIND       PRES   REMARKS
VALENTINE      CLOUDY    52  44  74 S16       29.65F
AINSWORTH      CLOUDY    52  48  88 S15       29.64F
ONEILL         CLOUDY    51  49  91 S22       29.70F
BROKEN BOW     LGT RAIN  52  31  44 S17G25    29.69F
IMPERIAL       SUNNY     65  49  56 S6        29.63F
NORTH PLATTE   CLOUDY    55  50  83 SE6       29.67F
MCCOOK         SUNNY     75  55  49 S17       29.63F

...EASTERN NEBRASKA...

CITY           SKY/WX    TMP DP  RH WIND       PRES   REMARKS
NORFOLK        CLOUDY    55  44  66 S22G30    29.76F
SO SIOUX CITY  CLOUDY    53  37  54 SE22G28   29.81F
TEKAMAH        CLOUDY    57  38  48 S21       29.83F
COLUMBUS       CLOUDY    57  45  62 S22G29    29.79F
ALBION         CLOUDY    54  48  78 S22       29.75F
OMAHA EPPLEY   PTSUNNY   62  38  40 SE25G33   29.82F
OFFUTT AFB     SUNNY     64  39  39 SE20      29.82F
MILLARD        SUNNY     65  42  43 SE20G25   29.81F
LINCOLN        CLOUDY    65  50  58 S16       29.79F
NEBRASKA CITY  SUNNY     68  40  35 S25G32    29.83F
BEATRICE       CLOUDY    69  54  58 S25G31    29.78F
FALLS CITY     MOSUNNY   67  48  50 S28G33    29.85F

...NORTHERN KANSAS...

CITY           SKY/WX    TMP DP  RH WIND       PRES   REMARKS
GOODLAND       SUNNY     72  50  45 S23G29    29.65F
HILL CITY      PTSUNNY   72  58  61 SW20G31   29.68F
NORTON         PTCLDY    73  54  49 S23G30    29.64F
PHILLIPSBURG     N/A    N/A N/A N/A S14       29.70F
HAYS             N/A     67  58  72 S22G30    29.72F
RUSSELL        CLOUDY    67  57  70 S31G39    29.73F
CONCORDIA      CLOUDY    67  56  67 S24G37    29.78F
SALINA         CLOUDY    70  56  61 S23G38    29.82F
TOPEKA         SUNNY     75  53  46 S26G33    29.87F



USA.gov is the U.S. government's official web portal to all federal, state and local government web resources and services.